Regional Weather Roundup
Issued by NWS

Home | Current Version | Previous Version | Graphics & Text | Print | Product List | Glossary On
Versions: 1 2 3 4 5 6 7 8 9 10 11 12 13 14 15 16 17 18 19 20 21 22 23 24 25 26 27 28 29 30 31 32 33 34 35 36 37 38 39 40 41 42 43 44 45 46 47 48 49 50
000
ASUS43 KLOT 291507
RWRIL

ILLINOIS REGIONAL WEATHER ROUNDUP
NATIONAL WEATHER SERVICE CHICAGO/ROMEOVILLE IL
1000 AM CDT SAT APR 29 2017

NOTE: "FAIR" INDICATES FEW OR NO CLOUDS BELOW 12,000 FEET WITH NO
SIGNIFICANT WEATHER AND/OR OBSTRUCTIONS TO VISIBILITY.

* THESE STATIONS ARE NOT UNDER NWS QUALITY CONTROL. THEY ALSO MAY NOT
  REPORT WEATHER SUCH AS PRECIPITATION OR FOG.

ILZ001-002-007-009-015-016-024-291600-
NORTHWEST ILLINOIS

CITY           SKY/WX    TMP DP  RH WIND       PRES   REMARKS
MOLINE         CLOUDY    47  36  65 NE16G30   30.04F
STERLING*      CLOUDY    46  34  62 NE20      30.09F
SAVANNA*       MOSUNNY   47  34  60 NE21      30.11F
$$

ILZ003-004-008-010-011-017-018-291600-
NORTH CENTRAL ILLINOIS

CITY           SKY/WX    TMP DP  RH WIND       PRES   REMARKS
ROCKFORD       CLOUDY    48  34  58 NE20G26   30.16F
FREEPORT*      CLOUDY    47  37  68 NE22G30   30.15F
ROCHELLE*      CLOUDY    45  34  65 NE24G32   30.13R
DE KALB*       CLOUDY    45  35  67 NE23G30   30.12S
PERU*          CLOUDY    46  34  64 NE35      30.02F
$$

ILZ005-006-012>014-019>023-291600-
NORTHEAST ILLINOIS

CITY           SKY/WX    TMP DP  RH WIND       PRES   REMARKS
CHICAGO-OHARE  CLOUDY    46  33  60 NE24G32   30.13F
CHICAGO-MIDWAY CLOUDY    46  37  71 N21G36    30.12F
AURORA         CLOUDY    47  33  58 NE24G33   30.10F
LANSING*       CLOUDY    45  39  79 NE22G35   30.10F
JOLIET*        CLOUDY    49  36  62 NE15G26   30.11R
WAUKEGAN       PTSUNNY   42  34  73 N20G36    30.14F
DUPAGE AIRPORT CLOUDY    46  33  60 NE26G36   30.11F
KANKAKEE*      CLOUDY    47  39  74 N15G26    30.07F
WHEELING       CLOUDY    44  37  76 NE15G29   30.16F
MORRIS*        CLOUDY    49  35  60 NE14G22   30.08S
ROMEOVILLE*    CLOUDY    47  38  72 NE24G31   30.11R
NORTHERLY ISL    N/A     43  36  76 N26         N/A
$$

LMZ740>746-291600-
SOUTHERN LAKE MICHIGAN

STATION/POSITION SKY/WX   TEMP    WIND        PRES    VSBY  WAVE
                          AIR SEA DIR/SP/G                  HT/PER
                          (F)     (DEG/KT/KT) (MB)    (MI)  (FT/S)
SOUTHERN BUOY              40 41   10/ 19/ 21 1022.9          3/ 5
HARRISON CRIB              42      10/ 28/ 30   N/A
BURNHAM HARBOR             43     360/ 18/ 25   N/A
CALUMET HARBOR             43     360/ 19/ 26 1019.5F
BURNS HARBOR               44      20/ 22/ 26 1020.0R
MICHIGAN CITY              43     360/ 25/ 28   N/A
MICHIGAN CITY 6N           43 46                N/A           5/ 5
ST. JOSEPH                 46 48   50/ 17/ 23 1020.7          4/ 5
$$

ILZ025>027-034>036-040-047-049-050-058-095>099-291600-
WEST-CENTRAL ILLINOIS

CITY           SKY/WX    TMP DP  RH WIND       PRES   REMARKS
QUINCY         RAIN      49  47  93 E24       29.93F FOG
GALESBURG*     CLOUDY    47  40  78 NE15G26   30.05R
MACOMB*        CLOUDY    48  44  85 E17       30.09R
JACKSONVILLE*  TSTM      49  47  95 E17       30.03F
PITTSFIELD*    TSTM      49  49  97 NE14      29.99F
$$

ILZ028>032-037-038-041>044-048-051>054-059>061-291600-
CENTRAL ILLINOIS

CITY           SKY/WX    TMP DP  RH WIND       PRES   REMARKS
PONTIAC        CLOUDY    49  43  80 NE32      30.01F
BLOOMINGTON    CLOUDY    47  43  86 NE21G32   30.02R
DECATUR        RAIN      50  50 100 NE9       30.06R FOG
PEORIA         CLOUDY    49  41  74 NE18G31   30.04R
LACON*         PTSUNNY   47  39  71 NE15G22   30.03R
LINCOLN*       CLOUDY    50  47  88 E3        30.12R
SPRINGFIELD    RAIN      50  47  89 NE12      30.05R FOG
TAYLORVILLE    RAIN      50  50  97 N9        30.06R
$$

ILZ033-039-045-046-055>057-062-063-291600-
EAST-CENTRAL ILLINOIS

CITY           SKY/WX    TMP DP  RH WIND       PRES   REMARKS
CHAMPAIGN      LGT RAIN  50  47  89 NE16      30.04R
RANTOUL*       CLOUDY    50  48  93 NE17      30.03R
MATTOON        RAIN      53  53 100 SE16      29.99R FOG
PARIS*         CLOUDY    54  54 100 E16       30.00F
$$

ILZ079-100>102-291600-
SOUTHWEST ILLINOIS

CITY           SKY/WX    TMP DP  RH WIND       PRES   REMARKS
ALTON          TSTM      57  55  94 E8        29.98R FOG
BELLEVILLE     TSTM      61  61 100 S7        29.97S
CAHOKIA*       TSTM      61  59  93 SE9       29.93F
SPARTA*        CLOUDY    63  63 100 E10       29.94F
$$

ILZ064>066-069>071-074>076-080>082-084>086-088>090-092>094-291600-
SOUTH-CENTRAL ILLINOIS

CITY           SKY/WX    TMP DP  RH WIND       PRES   REMARKS
CARBONDALE     CLOUDY    66  65  96 SE7       29.94F
CAIRO*         CLOUDY    70  66  88 E8        29.95S
EFFINGHAM*     TSTM      59  59 100 E3        30.04R
MARION         CLOUDY    68  66  94 SE12      29.96F
MT. VERNON     PTSUNNY   65  64  97 SE5       29.98S
CENTRALIA*     CLOUDY    64  64  99 E5        29.97F
SALEM*         CLOUDY    63  61  94 E5        29.98F
METROPOLIS*    CLOUDY    72  68  88 CALM      29.98R
$$

ILZ067-068-072-073-078-083-087-091-291600-
SOUTHEAST ILLINOIS

CITY           SKY/WX    TMP DP  RH WIND       PRES   REMARKS
LAWRENCEVILLE  CLOUDY    66  64  93 SE9       30.00F
FLORA*         TSTM      64  64  97 SE12      30.00R
FAIRFIELD*     CLOUDY    66  65  97 E6        29.97F
HARRISBURG*    CLOUDY    66  65  95 SE9       29.99S
ROBINSON*      CLOUDY    60  60 100 E3        30.02S
CARMI*         CLOUDY    66  64  93 SE10      29.99S
$$

ABBREVIATIONS USED IN REMARKS
   TC - TEMPERATURE IN CELSIUS
  WCI - WIND CHILL INDEX
   HX - HEAT INDEX
  VSB - VISIBILITY
$$





USA.gov is the U.S. government's official web portal to all federal, state and local government web resources and services.